SP3WRO-13 Weather Reports


time (UTC)temp
C
wind
direction
speed
KPH
gust
KPH
rain 1hr
cm
rain 24hr
cm
rain mn
cm
humidity
%
barometer
mb
20260502214427 9 66 0.0 0.0 0.00 0.00 0.00 76 1012.9
20260502212927 10 66 0.0 0.0 0.00 0.00 0.00 74 1013.0
20260502211427 10 66 0.0 0.0 0.00 0.00 0.00 76 1013.1
20260502205927 11 66 0.0 0.0 0.00 0.00 0.00 74 1013.1
20260502204427 11 66 0.0 0.0 0.00 0.00 0.00 72 1013.1
20260502202927 12 66 0.0 0.0 0.00 0.00 0.00 70 1013.0
20260502201427 12 66 0.0 0.0 0.00 0.00 0.00 69 1013.1
20260502195926 13 66 0.0 0.0 0.00 0.00 0.00 68 1013.0
20260502194426 13 72 0.0 0.0 0.00 0.00 0.00 66 1012.9
20260502192926 16 72 0.0 0.0 0.00 0.00 0.00 54 1013.0
20260502191426 17 81 0.0 0.0 0.00 0.00 0.00 47 1012.9
20260502185926 18 87 0.0 3.2 0.00 0.00 0.00 46 1013.0
20260502184426 18 81 0.0 3.2 0.00 0.00 0.00 44 1012.9
20260502182926 20 101 1.6 6.4 0.00 0.00 0.00 42 1012.9
20260502181426 20 134 1.6 4.8 0.00 0.00 0.00 41 1012.9
20260502162925 25 137 4.8 9.7 0.00 0.00 0.00 27 1013.4
20260502161425 25 144 4.8 11.3 0.00 0.00 0.00 27 1013.6
20260502151425 26 210 6.4 14.5 0.00 0.00 0.00 27 1014.6
20260502122922 25 246 6.4 17.7 0.00 0.00 0.00 29 1016.9
20260502121422 25 180 6.4 16.1 0.00 0.00 0.00 30 1017.2
20260502115922 25 84 6.4 11.3 0.00 0.00 0.00 29 1017.3
20260502114422 24 126 6.4 16.1 0.00 0.00 0.00 30 1017.6
20260502112922 25 192 6.4 14.5 0.00 0.00 0.00 30 1017.8
20260502111422 23 78 4.8 14.5 0.00 0.00 0.00 32 1018.0
20260502105922 24 186 8.0 14.5 0.00 0.00 0.00 31 1018.2
20260502104422 24 206 6.4 11.3 0.00 0.00 0.00 32 1018.4
20260502102922 23 205 4.8 14.5 0.00 0.00 0.00 33 1018.6
20260502101422 23 173 4.8 11.3 0.00 0.00 0.00 32 1018.7
20260502091421 23 246 4.8 9.7 0.00 0.00 0.00 35 1019.3
20260502071421 17 296 0.0 0.0 0.00 0.00 0.00 48 1020.4
20260502065921 16 283 0.0 0.0 0.00 0.00 0.00 50 1020.4
20260502064421 16 294 0.0 0.0 0.00 0.00 0.00 52 1020.4
20260502062921 15 210 0.0 0.0 0.00 0.00 0.00 52 1020.5
20260502061421 13 284 0.0 0.0 0.00 0.00 0.00 58 1020.6
20260502055921 11 312 0.0 0.0 0.00 0.00 0.00 60 1020.6
20260502054421 11 329 0.0 0.0 0.00 0.00 0.00 60 1020.7
20260502052921 9 311 0.0 0.0 0.00 0.00 0.00 69 1020.7
20260502051421 8 0 0.0 0.0 0.00 0.00 0.00 66 1020.7
20260502045920 8 57 0.0 0.0 0.00 0.00 0.00 73 1020.7
20260502044420 7 75 0.0 0.0 0.00 0.00 0.00 73 1020.8
20260502042920 5 54 0.0 0.0 0.00 0.00 0.00 81 1020.7
20260502041420 4 72 0.0 0.0 0.00 0.00 0.00 85 1020.7
20260502035920 3 66 0.0 0.0 0.00 0.00 0.00 90 1020.7
20260502034420 2 78 0.0 0.0 0.00 0.00 0.00 90 1020.7
20260502032920 2 24 0.0 0.0 0.00 0.00 0.00 91 1020.8
20260502031420 2 60 0.0 0.0 0.00 0.00 0.00 90 1020.7
20260502025920 3 60 0.0 0.0 0.00 0.00 0.00 90 1020.8
20260502024420 3 60 0.0 0.0 0.00 0.00 0.00 90 1020.9
20260502022920 3 54 0.0 0.0 0.00 0.00 0.00 89 1020.9
20260502021420 3 54 0.0 0.0 0.00 0.00 0.00 88 1020.9
20260502015920 3 54 0.0 0.0 0.00 0.00 0.00 88 1020.9
20260502014420 3 84 0.0 0.0 0.00 0.00 0.00 87 1020.9
20260502012920 4 36 0.0 0.0 0.00 0.00 0.00 86 1020.9
20260502011420 4 66 0.0 0.0 0.00 0.00 0.00 87 1021.0
20260502005920 5 66 0.0 0.0 0.00 0.00 0.00 85 1021.0
20260502004420 5 60 0.0 0.0 0.00 0.00 0.00 84 1021.1
20260502002919 5 102 0.0 0.0 0.00 0.00 0.00 83 1021.2
20260502001419 5 42 0.0 0.0 0.00 0.00 0.00 84 1021.2
20260501235919 6 72 0.0 0.0 0.00 0.00 0.00 83 1021.2
20260501234419 6 54 0.0 0.0 0.00 0.00 0.00 81 1021.1
20260501232919 6 42 0.0 0.0 0.00 0.00 0.00 81 1021.1
20260501231419 6 72 0.0 0.0 0.00 0.00 0.00 82 1021.2
20260501225919 6 54 0.0 0.0 0.00 0.00 0.00 81 1021.2
20260501224419 7 66 0.0 0.0 0.00 0.00 0.00 78 1021.2
20260501222919 7 48 0.0 0.0 0.00 0.00 0.00 78 1021.2
20260501221419 8 74 0.0 0.0 0.00 0.00 0.00 77 1021.2
20260501215919 8 78 0.0 0.0 0.00 0.00 0.00 77 1021.2